Location: Peebles
(55.6412°N, 3.1714°W)
Time: 22:12:16
(UTC+00:00)

deb Agena D - Pass Details

Date: 22 September 2023
Orbit: 794 x 979 km, 99.8° (Epoch: 28 November)

Event Time Altitude Azimuth Distance (km) Brightness Sun altitude
Rises 01:10:29 0° 19° (NNE) 3,692 10.5 -33.9°
Reaches altitude 10° 01:12:59 10° 22° (NNE) 2,745 9.6 -33.8°
Enters shadow 01:17:47 52° 49° (NE) 1,206 7.1 -33.8°
